Regional Weather Roundup
Issued by NWS

Home | Current Version | Previous Version | Text Only | Print | Product List | Glossary Off
Versions: 1 2 3 4 5 6 7 8 9 10 11 12 13 14 15 16 17 18 19 20 21 22 23 24 25 26 27 28 29 30 31 32 33 34 35 36 37 38 39 40 41 42 43 44 45 46 47 48 49 50

000
ASUS45 KSLC 040210
RWRUT

UTAH REGIONAL WEATHER ROUNDUP
NATIONAL WEATHER SERVICE SALT LAKE CITY UT
700 PM MST TUE MAR 03 2015

UTZ001>011-023>025-040300-

NORTHERN UTAH

CITY           SKY/WX    TMP DP  RH WIND       PRES   REMARKS
BRIGHAM CITY   PTCLDY    33  18  54 NW3       29.96R
HILL AFB       CLOUDY    31  20  64 NW3       29.94R
LOGAN          CLOUDY    32  19  58 SW5       29.94R WCI  27
OGDEN          CLOUDY    32  22  66 CALM      29.94R
PROVO AIRPORT  PTCLDY    32  19  59 NW12G17   29.93R WCI  23
SALT LAKE CITY FLURRIES  32  27  81 NE10      29.95R WCI  24
VERNAL         CLOUDY    32  25  75 CALM      29.79R
WENDOVER       CLEAR     36  10  35 NW9       29.98R WCI  29
HEBER CITY     PTCLDY    27  14  59 NE5       29.88R WCI  21
WEST JORDAN    MOCLDY    30  21  69 W6        29.94R WCI  24

$$

UTZ012>022-026-027-040300-

SOUTHERN/CENTRAL UTAH

CITY           SKY/WX    TMP DP  RH WIND       PRES   REMARKS
BLANDING       CLEAR     33  30  88 SW6       29.88S WCI  27
BRYCE CANYON   MOCLDY    20  16  84 NW13      29.83R WCI   7
CEDAR CITY     FLURRIES  29  25  85 N10       29.89R WCI  20
DELTA          MOCLDY    32  21  65 N9        29.94R WCI  24
HANKSVILLE     PTCLDY    39  23  52 NW13      29.85R WCI  32
MILFORD        CLOUDY    30  25  81 N9        29.93R WCI  22
MOAB/CYNLANDS  CLEAR     34  33  96 SE3       29.80R
PRICE          PTCLDY    28  15  58 N13       29.82R WCI  17
ST GEORGE      PTCLDY    41  34  75 E6        29.92R
KANAB          CLOUDY    36  32  87 SW8       29.90S WCI  29

$$

REGIONAL REPORTS     COLORADO/ARIZONA

CITY           SKY/WX    TMP DP  RH WIND       PRES   REMARKS
CRAIG, CO      CLOUDY    23  15  71 NW6       29.80R WCI  16
GRAND JUNCTION CLOUDY    36  29  75 NW14      29.80R WCI  27
RIFLE          MOCLDY    34  28  79 SE6       29.75R WCI  29
MONTROSE       MOCLDY    38  22  52 CALM      29.79R
CORTEZ         PTCLDY    34  30  85 E7        29.83R WCI  28
PAGE, AZ       CLOUDY    43  27  53 NW3       29.85R
GRAND CANYON   PTCLDY    29  27  92 CALM      29.88R
KINGMAN        PTCLDY    42  35  76 SE8       29.88R
FLAGSTAFF      NOT AVBL

$$

REGIONAL REPORTS    NEVADA/IDAHO/WYOMING

CITY           SKY/WX    TMP DP  RH WIND       PRES   REMARKS
LAS VEGAS, NV  MOCLDY    55  33  43 CALM      29.84R
ELY            MOCLDY    22  15  75 N8        29.95R WCI  12
ELKO           CLEAR     32  13  45 NW6       30.00R WCI  26
POCATELLO, ID  PTCLDY    22  12  65 SE6       29.95S WCI  14
BURLEY         LGT RAIN  33  14  45 W13G23    29.93R WCI  24
EVANSTON, WY   PTCLDY    14   9  80 W7        29.85R WCI   4
ROCK SPRINGS   CLEAR      7   3  84 E7        29.79R WCI  -5

$$


USA.gov is the U.S. government's official web portal to all federal, state and local government web resources and services.